GW5901 Weather Reports


time (UTC)temp
C
wind
direction
speed
KPH
gust
KPH
rain 1hr
cm
rain 24hr
cm
rain mn
cm
humidity
%
barometer
mb
20260505140530 15 31 0.0 0.0 0.00 1.55 1.55 99 1008.1
20260505124943 15 56 0.0 0.0 0.00 1.55 1.55 99 1008.1
20260505124440 15 59 0.0 0.0 0.00 1.55 1.55 99 1008.0
20260505123936 15 59 0.0 0.0 0.00 1.55 1.55 99 1007.9
20260505123433 15 36 0.0 0.0 0.00 1.55 1.55 99 1008.0
20260505122929 15 48 0.0 0.0 0.00 1.55 1.55 99 1007.9
20260505122426 15 47 0.0 0.0 0.00 1.55 1.55 99 1007.8
20260505121923 15 85 3.2 3.2 0.00 1.55 1.55 99 1007.5
20260505121420 15 14 1.6 3.2 0.00 1.55 1.55 99 1007.1
20260505120916 15 26 0.0 0.0 0.00 1.55 1.55 99 1006.8
20260505120413 15 47 0.0 0.0 0.00 1.55 1.55 99 1006.8
20260505115912 15 30 0.0 0.0 0.00 1.55 1.55 99 1006.9
20260505115408 15 25 0.0 0.0 0.00 1.55 1.55 99 1006.6
20260505114907 15 24 0.0 0.0 0.00 1.55 1.55 99 1006.6
20260505114402 15 25 0.0 0.0 0.00 1.55 1.55 99 1006.6
20260505113859 15 38 0.0 0.0 0.00 1.55 1.55 99 1006.6
20260505113355 15 22 1.6 1.6 0.00 1.55 1.55 99 1006.9
20260505112851 15 25 0.0 0.0 0.00 1.55 1.55 99 1006.4
20260505112349 15 16 1.6 3.2 0.00 1.55 1.55 99 1006.8
20260505111845 15 24 0.0 0.0 0.00 1.55 1.55 99 1006.7
20260505111340 15 26 1.6 1.6 0.00 1.55 1.55 99 1006.4
20260505110836 15 32 0.0 0.0 0.00 1.55 1.55 99 1006.8
20260505110334 15 35 0.0 0.0 0.13 1.55 1.55 99 1006.9
20260505101809 15 51 0.0 0.0 0.18 1.45 1.45 99 1008.2
20260505101304 15 50 1.6 1.6 0.18 1.45 1.45 99 1007.8
20260505100800 15 49 0.0 0.0 0.43 1.42 1.42 99 1007.7
20260505100257 15 50 1.6 1.6 1.02 1.42 1.42 99 1007.8
20260505095753 15 49 0.0 0.0 0.89 1.37 1.37 99 1007.7
20260505095251 15 64 0.0 0.0 0.18 1.24 1.24 99 1007.5
20260505094746 15 44 0.0 0.0 0.13 1.22 1.22 99 1008.2
20260505094243 15 44 0.0 0.0 0.30 1.22 1.22 99 1007.8
20260505093739 15 44 0.0 0.0 0.48 1.19 1.19 99 1007.1
20260505093237 15 48 0.0 0.0 0.48 1.17 1.17 99 1007.3
20260505092733 15 69 1.6 1.6 0.48 1.12 1.12 99 1007.6
20260505092232 15 36 0.0 0.0 0.71 1.09 1.09 98 1008.0
20260505091729 15 42 0.0 0.0 0.89 1.07 1.07 98 1007.6
20260505091227 15 50 0.0 0.0 0.79 0.97 0.97 98 1007.6
20260505090724 15 48 1.6 1.6 0.79 0.91 0.91 98 1007.9
20260505090223 15 24 0.0 0.0 0.79 0.84 0.84 98 1008.8
20260505085719 15 31 0.0 0.0 0.89 0.79 0.79 98 1008.5
20260505085218 15 25 0.0 0.0 1.50 0.71 0.71 98 1008.3
20260505084715 15 23 0.0 0.0 2.46 0.64 0.64 97 1008.3
20260505084214 15 14 1.6 1.6 1.98 0.48 0.48 97 1008.5
20260505083710 15 11 1.6 1.6 0.79 0.25 0.25 97 1008.5
20260505083207 15 12 0.0 0.0 0.18 0.13 0.13 96 1007.8
20260505082703 15 44 0.0 0.0 0.18 0.13 0.13 96 1007.8
20260505082200 15 39 0.0 0.0 0.13 0.10 0.10 95 1007.6
20260505081655 15 26 0.0 0.0 0.30 0.10 0.10 95 1007.8
20260505081153 15 41 0.0 0.0 0.18 0.08 0.08 94 1007.7
20260505080650 15 43 0.0 0.0 0.30 0.08 0.08 94 1007.6
20260505080146 15 67 1.6 1.6 0.30 0.05 0.05 93 1007.5
20260505075642 15 61 1.6 1.6 0.18 0.03 0.03 92 1007.7
20260505075139 15 69 1.6 1.6 0.00 0.00 0.00 90 1007.7
20260505074636 15 31 0.0 0.0 0.00 0.00 0.00 91 1007.7
20260505074133 16 35 0.0 0.0 0.00 0.00 0.00 90 1007.8
20260505073631 16 39 0.0 0.0 0.00 0.00 0.00 88 1008.0
20260505073129 16 56 0.0 1.6 0.00 0.00 0.00 85 1007.2
20260505072624 16 23 1.6 3.2 0.00 0.00 0.00 84 1007.2
20260505072121 16 30 0.0 0.0 0.00 0.00 0.00 81 1007.2
20260505071617 16 30 0.0 0.0 0.00 0.00 0.00 82 1007.7
20260505071115 16 30 0.0 0.0 0.00 0.00 0.00 80 1007.5
20260505070612 16 30 0.0 0.0 0.00 0.00 0.00 80 1007.5
20260505070108 17 30 0.0 0.0 0.00 0.00 0.00 79 1007.5
20260505065604 17 30 0.0 0.0 0.00 0.00 0.00 80 1007.6
20260505065100 16 30 0.0 0.0 0.00 0.00 0.00 81 1007.7
20260505064557 16 30 0.0 0.0 0.00 0.00 0.00 81 1007.4
20260505064056 16 30 0.0 0.0 0.00 0.00 0.00 81 1007.7
20260505063553 16 30 0.0 0.0 0.00 0.00 0.00 80 1007.7
20260505063049 16 30 0.0 0.0 0.00 0.00 0.00 80 1007.8
20260505062545 16 30 0.0 0.0 0.00 0.00 0.00 81 1008.1
20260505062043 16 30 0.0 0.0 0.00 0.00 0.00 80 1007.9
20260505061540 16 30 0.0 0.0 0.00 0.00 0.00 79 1008.1
20260505061038 16 30 0.0 0.0 0.00 0.00 0.00 79 1008.2
20260505060535 17 30 0.0 0.0 0.00 0.00 0.00 79 1008.7
20260505060032 17 30 0.0 0.0 0.00 0.00 0.00 78 1008.3
20260505055527 17 30 0.0 0.0 0.00 0.00 0.00 78 1008.3
20260505055024 17 30 0.0 0.0 0.00 0.00 0.00 78 1008.2
20260505054521 17 29 1.6 1.6 0.00 0.00 0.00 78 1008.4
20260505054019 17 33 0.0 0.0 0.00 0.00 0.00 78 1008.0
20260505053516 17 34 0.0 0.0 0.00 0.00 0.00 78 1008.0
20260505053013 17 34 0.0 0.0 0.00 0.00 0.00 77 1007.9
20260505052510 17 31 1.6 1.6 0.00 0.00 0.00 77 1008.1
20260505052007 17 29 0.0 0.0 0.00 0.00 0.00 77 1008.2
20260505051504 17 33 1.6 1.6 0.00 0.00 0.00 77 1008.3
20260505051002 17 34 0.0 0.0 0.00 0.00 0.00 77 1008.5
20260505050500 17 34 0.0 0.0 0.00 0.00 0.00 76 1008.5
20260505041427 18 34 0.0 0.0 0.00 0.00 0.00 72 1009.1
20260505040925 18 34 0.0 0.0 0.00 0.00 0.00 72 1009.2
20260505040422 18 33 0.0 0.0 0.00 0.00 0.00 71 1009.1
20260505035919 18 33 0.0 0.0 0.00 0.00 0.00 71 1009.2
20260505035415 18 33 0.0 0.0 0.00 0.00 0.00 71 1009.1
20260505034912 18 33 0.0 0.0 0.00 0.00 0.00 71 1009.3
20260505034409 18 33 0.0 0.0 0.00 0.00 0.00 70 1009.3
20260505033906 18 33 0.0 0.0 0.00 0.00 0.00 70 1009.3
20260505033402 18 33 0.0 0.0 0.00 0.00 0.00 70 1009.4
20260505032901 18 33 0.0 0.0 0.00 0.00 0.00 71 1009.2
20260505032357 18 33 0.0 0.0 0.00 0.00 0.00 70 1009.2
20260505031854 18 33 0.0 0.0 0.00 0.00 0.00 70 1009.3
20260505031351 18 33 0.0 0.0 0.00 0.00 0.00 70 1009.2
20260505030848 18 33 0.0 0.0 0.00 0.00 0.00 71 1009.3
20260505030344 18 33 0.0 0.0 0.00 0.00 0.00 70 1009.3
20260505025839 18 33 0.0 0.0 0.00 0.00 0.00 70 1009.3
20260505025337 18 33 0.0 0.0 0.00 0.00 0.00 70 1009.5
20260505024836 19 33 0.0 0.0 0.00 0.00 0.00 69 1009.0
20260505024333 19 33 0.0 0.0 0.00 0.00 0.00 69 1009.3
20260505023830 19 33 0.0 0.0 0.00 0.00 0.00 69 1009.3
20260505023327 19 33 0.0 0.0 0.00 0.00 0.00 68 1009.2
20260505022824 19 33 0.0 0.0 0.00 0.00 0.00 68 1009.0
20260505022321 20 34 0.0 0.0 0.00 0.00 0.00 67 1008.7
20260505021818 20 33 0.0 0.0 0.00 0.00 0.00 67 1008.8
20260505021315 20 28 0.0 0.0 0.00 0.00 0.00 67 1008.3
20260505020810 20 20 0.0 1.6 0.00 0.00 0.00 66 1008.5
20260505020306 20 34 0.0 0.0 0.00 0.00 0.00 65 1008.4
20260505015803 20 37 0.0 0.0 0.00 0.00 0.00 65 1008.3
20260505015300 20 39 0.0 0.0 0.00 0.00 0.00 64 1008.3
20260505014758 20 85 1.6 3.2 0.00 0.00 0.00 63 1008.3
20260505014255 21 33 0.0 0.0 0.00 0.00 0.00 62 1008.1
20260505013751 21 15 1.6 1.6 0.00 0.00 0.00 62 1008.0
20260505013248 21 41 1.6 1.6 0.00 0.00 0.00 62 1007.8
20260505012747 21 2 1.6 1.6 0.00 0.00 0.00 62 1007.8
20260505012243 21 16 1.6 1.6 0.00 0.00 0.00 62 1007.8
20260505011739 21 6 1.6 3.2 0.00 0.00 0.00 63 1007.8
20260505011237 21 14 1.6 1.6 0.00 0.00 0.00 63 1007.6
20260505010732 21 351 1.6 1.6 0.00 0.00 0.00 62 1007.6
20260505010228 21 32 0.0 0.0 0.00 0.00 0.00 62 1007.6
20260505005725 21 37 0.0 0.0 0.00 0.00 0.00 63 1007.6
20260505005222 21 44 0.0 1.6 0.00 0.00 0.00 64 1007.5
20260505004719 21 26 0.0 0.0 0.00 0.00 0.00 62 1007.4
20260505004216 22 21 0.0 0.0 0.00 0.00 0.00 61 1007.6
20260505003713 22 25 0.0 0.0 0.00 0.00 0.00 60 1007.3
20260505003211 22 24 1.6 1.6 0.00 0.00 0.00 59 1007.3
20260505002707 22 49 0.0 0.0 0.00 0.00 0.00 58 1007.2
20260505002205 22 3 1.6 1.6 0.00 0.00 0.00 58 1007.2
20260505001701 22 7 1.6 1.6 0.00 0.00 0.00 58 1007.1
20260505001159 22 12 1.6 1.6 0.00 0.00 0.00 57 1007.2
20260505000656 22 347 1.6 1.6 0.00 0.00 0.00 57 1006.9
20260505000154 22 19 0.0 0.0 0.00 0.00 0.00 57 1007.0
20260504235650 23 17 0.0 0.0 0.00 0.00 0.00 57 1007.0
20260504235146 23 21 0.0 0.0 0.00 0.00 0.00 57 1006.9
20260504234644 23 16 0.0 0.0 0.00 0.00 0.00 56 1007.2
20260504234141 23 36 0.0 0.0 0.00 0.00 0.00 56 1007.1
20260504233637 23 15 1.6 1.6 0.00 0.00 0.00 56 1007.2
20260504233133 23 20 1.6 1.6 0.00 0.00 0.00 55 1007.4
20260504232631 23 16 4.8 8.0 0.00 0.00 0.00 54 1007.5
20260504232127 23 7 1.6 1.6 0.00 0.00 0.00 54 1007.3
20260504231624 23 42 0.0 1.6 0.00 0.00 0.00 54 1007.5
20260504231120 23 28 0.0 1.6 0.00 0.00 0.00 53 1007.6
20260504230616 24 109 1.6 4.8 0.00 0.00 0.00 53 1007.5
20260504230115 24 353 1.6 1.6 0.00 0.00 0.00 52 1007.6
20260504225613 24 104 3.2 3.2 0.00 0.00 0.00 52 1007.6
20260504225109 24 311 1.6 3.2 0.00 0.00 0.00 52 1007.4
20260504224606 24 346 1.6 3.2 0.00 0.00 0.00 50 1007.4
20260504224103 25 304 1.6 3.2 0.00 0.00 0.00 50 1007.6
20260504223600 25 146 3.2 3.2 0.00 0.00 0.00 49 1007.7
20260504223055 25 187 4.8 4.8 0.00 0.00 0.00 50 1007.5
20260504222553 25 50 3.2 4.8 0.00 0.00 0.00 51 1007.8
20260504222050 25 285 4.8 8.0 0.00 0.00 0.00 50 1007.7
20260504221547 25 224 3.2 4.8 0.00 0.00 0.00 49 1007.8
20260504221044 25 329 1.6 1.6 0.00 0.00 0.00 48 1007.8
20260504220540 25 299 4.8 4.8 0.00 0.00 0.00 48 1007.7
20260504220037 26 72 3.2 4.8 0.00 0.00 0.00 50 1007.8
20260504215534 25 81 1.6 3.2 0.00 0.00 0.00 49 1007.7
20260504215032 25 294 3.2 3.2 0.00 0.00 0.00 49 1007.7
20260504214527 25 10 0.0 0.0 0.00 0.00 0.00 49 1007.9
20260504214024 25 342 4.8 8.0 0.00 0.00 0.00 47 1007.8
20260504213521 25 199 4.8 4.8 0.00 0.00 0.00 47 1007.7
20260504213018 25 230 6.4 8.0 0.00 0.00 0.00 45 1007.7
20260504212513 25 169 4.8 4.8 0.00 0.00 0.00 46 1008.0
20260504212011 25 62 3.2 3.2 0.00 0.00 0.00 46 1008.0
20260504211508 25 264 4.8 8.0 0.00 0.00 0.00 46 1008.3
20260504211005 25 224 4.8 4.8 0.00 0.00 0.00 46 1008.1
20260504210502 25 264 4.8 4.8 0.00 0.00 0.00 46 1008.1
20260504205958 25 312 3.2 3.2 0.00 0.00 0.00 47 1008.3
20260504205456 25 268 3.2 4.8 0.00 0.00 0.00 47 1008.2
20260504204954 25 301 4.8 4.8 0.00 0.00 0.00 48 1008.3
20260504204452 26 323 6.4 11.3 0.00 0.00 0.00 47 1008.1
20260504203951 26 185 3.2 3.2 0.00 0.00 0.00 48 1008.3
20260504203448 25 293 4.8 4.8 0.00 0.00 0.00 48 1008.4
20260504202944 25 317 3.2 3.2 0.00 0.00 0.00 47 1008.7
20260504202441 26 176 4.8 4.8 0.00 0.00 0.00 47 1008.5
20260504201938 26 188 4.8 4.8 0.00 0.00 0.00 48 1008.7
20260504201435 26 229 4.8 4.8 0.00 0.00 0.00 48 1008.7
20260504200932 25 208 4.8 4.8 0.00 0.00 0.00 49 1008.9
20260504200429 25 230 4.8 4.8 0.00 0.00 0.00 48 1008.9
20260504195926 25 227 6.4 8.0 0.00 0.00 0.00 48 1009.1
20260504195422 25 297 4.8 4.8 0.00 0.00 0.00 48 1009.1
20260504194918 25 247 6.4 8.0 0.00 0.00 0.00 48 1009.2
20260504194414 26 249 6.4 8.0 0.00 0.00 0.00 47 1009.1
20260504193910 25 192 4.8 4.8 0.00 0.00 0.00 48 1009.1
20260504193408 26 222 4.8 8.0 0.00 0.00 0.00 48 1009.1
20260504192907 26 170 8.0 12.9 0.00 0.00 0.00 48 1009.3
20260504192403 26 203 4.8 4.8 0.00 0.00 0.00 47 1009.1
20260504191902 26 5 3.2 3.2 0.00 0.00 0.00 47 1009.5
20260504191400 26 266 4.8 4.8 0.00 0.00 0.00 47 1009.3
20260504190855 25 309 4.8 4.8 0.00 0.00 0.00 47 1009.4
20260504190351 25 238 4.8 4.8 0.00 0.00 0.00 48 1009.5
20260504185848 25 214 6.4 8.0 0.00 0.00 0.00 48 1009.3
20260504185345 25 282 3.2 3.2 0.00 0.00 0.00 49 1009.4
20260504184841 25 222 3.2 3.2 0.00 0.00 0.00 49 1009.4
20260504184337 25 351 1.6 3.2 0.00 0.00 0.00 48 1009.4
20260504183833 25 305 6.4 8.0 0.00 0.00 0.00 47 1009.7
20260504183330 25 302 4.8 4.8 0.00 0.00 0.00 48 1009.8
20260504182828 25 318 4.8 4.8 0.00 0.00 0.00 49 1009.7
20260504182325 25 142 4.8 4.8 0.00 0.00 0.00 48 1009.6
20260504181822 25 240 4.8 4.8 0.00 0.00 0.00 49 1009.7
20260504181319 25 190 4.8 4.8 0.00 0.00 0.00 48 1009.8
20260504180818 25 219 9.7 12.9 0.00 0.00 0.00 47 1009.9
20260504180316 25 304 4.8 4.8 0.00 0.00 0.00 48 1009.9
20260504175814 25 196 4.8 4.8 0.00 0.00 0.00 49 1009.8
20260504175311 25 230 4.8 4.8 0.00 0.00 0.00 48 1009.8
20260504174809 25 329 3.2 3.2 0.00 0.00 0.00 48 1010.0
20260504174306 25 283 4.8 4.8 0.00 0.00 0.00 48 1009.9
20260504173802 24 91 3.2 3.2 0.00 0.00 0.00 49 1010.0
20260504173259 25 285 6.4 8.0 0.00 0.00 0.00 49 1010.1
20260504172756 25 332 3.2 3.2 0.00 0.00 0.00 49 1010.4
20260504172253 25 334 4.8 4.8 0.00 0.00 0.00 49 1010.2
20260504171749 25 300 4.8 8.0 0.00 0.00 0.00 48 1010.5
20260504171246 25 249 6.4 8.0 0.00 0.00 0.00 49 1010.4
20260504170743 24 225 4.8 4.8 0.00 0.00 0.00 49 1010.6
20260504170240 24 176 6.4 9.7 0.00 0.00 0.00 49 1010.5
20260504160159 23 339 4.8 4.8 0.00 0.00 0.00 51 1011.1
20260504151126 22 208 3.2 3.2 0.00 0.00 0.00 51 1011.4
20260504150624 22 77 3.2 3.2 0.00 0.00 0.00 52 1011.6
20260504150121 22 231 4.8 4.8 0.00 0.00 0.00 51 1011.8